Notices

What's New in latest Release from April 7th, 2021:

- Updated Glossary, including Speed of Maximum Gust, and Total Hourly Precipitation

- Updated national and regional climate services offices contacts and prices information

- Addition of station inventory lists for 1981-2010, 1971-2000, and 1961-1990 Normals.

If you haven't already, please take our survey and provide feedback about our website: https://eccc.sondage-survey.ca/f/LanguageSelection.aspx?s=442ca660-fcf1-47c0-95a9-59707d6fd709

Hourly Data Report for April 24, 2021

KENORA A
ONTARIO
Current Station Operator: NAVCAN

49°47'18.000" N
94°21'47.000" W
409.70 m
6034076
71850
YQK

Download Data

Hourly Data (April 2021)
Hourly Data Report for April 24, 2021
TIME
LST
Temp Definition
°C
Dew Point Definition
°C
Rel Hum Definition
%
Precip. Amount Definition
mm

Wind Dir Definition
10's deg

Wind Spd Definition
km/h
Visibility Definition
km
Stn Press Definition
kPa
Hmdx Definition


Wind Chill Definition


Weather Definition


00:00 -3.4 -10.7 57   34 9 32.2 96.89   -7 Mainly Clear
01:00 -4.3 -11.6 57   1 7 32.2 96.89   -7 LegendNANA
02:00 -4.3 -11.6 57   33 7 32.2 96.89   -7 LegendNANA
03:00 -5.2 -11.5 62   36 6 32.2 96.89   -8 Mostly Cloudy
04:00 -5.6 -11.4 64   35 8 32.2 96.95   -9 LegendNANA
05:00 -5.8 -11.8 63   36 8 32.2 96.98   -10 LegendNANA
06:00 -5.1 -11.6 60   35 6 32.2 97.03   -8 Mainly Clear
07:00 -2.9 -10.9 54   2 5 32.2 97.04   -5 LegendNANA
08:00 -1.1 -13.0 40   4 6 32.2 97.05   -3 LegendNANA
09:00 0.3 -14.0 34   3 10 24.1 97.03     Clear
10:00 1.2 -14.0 31   34 17 24.1 97.01     LegendNANA
11:00 1.6 -13.6 32   30 8 32.2 96.95     LegendNANA
12:00 3.2 -14.3 27   34 16 32.2 96.90     Mostly Cloudy
13:00 2.9 -13.8 28   2 13 32.2 96.87     LegendNANA
14:00 3.4 -14.7 26   36 9 24.1 96.84     LegendNANA
15:00 3.9 -14.9 24   31 13 24.1 96.81     Mostly Cloudy
16:00 3.6 -14.7 25   33 10 32.2 96.77     LegendNANA
17:00 3.7 -13.8 27   3 9 24.1 96.76     LegendNANA
18:00 4.0 -13.6 27   36 1 24.1 96.75     Mostly Cloudy
19:00 2.7 -14.5 27   14 3 24.1 96.74     LegendNANA
20:00 1.3 -13.5 32   18 5 32.2 96.75     LegendNANA
21:00 0.6 -11.0 42   19 10 32.2 96.78     Mainly Clear
22:00 -0.4 -10.2 48   18 9 32.2 96.78   -4 LegendNANA
23:00                      

Notes on Data Quality.

Legend

  • E = Estimated
  • M = Missing
  • NA = Not Available*
  • [empty] = Indicates an unobserved value
Date modified: